吉林一号 高分 3D32 (JILIN-1 GAOFEN 3D32)

导读

JILIN-01 GAOFEN 3D 32(吉林一号高分3D 32星)是中国于2022年5月5日发射的商业遥感卫星,隶属于“吉林一号”卫星星座高分系列。该星座由中国长春光学精密机械与物理研究所打造,是我国自主商用遥感卫星的代表。 卫星继承高分系列亚米级成像优势,侧重高精度三维测绘,可获取高分辨率对地观测数据,服务于国土监测、资源勘探、地理测绘、农林管理等领域,进一步扩充了吉林一号星座的遥感服务能力。

基本信息
目录编号:
52449
目录名称:
JILIN-01 GAOFEN 3D 32
国际标识:
2022-048G
轨道中心:
EARTH
卫星名称:
高分 3D32
卫星全名:
吉林一号 高分 3D32 (JILIN-1 GAOFEN 3D32)
卫星状态:
已陨落 最后检测时间 2025-09-30
发射日期:
2022-05-05 UTC
国别 :
中国 (CN)
星等 :
--
轨道信息
数据来源 国际轨道数据
星历时间: 2025-09-30T13:54:45+0800
轨道信息已过期255天
半长轴: 6562.428km
偏心率: 0.0011026
轨道倾角: 97.568°
近地点辐角 261.811°
升交点赤经 24.294°
平近点角 98.193°
近地点: 177.057km
远地点: 191.529km
周期: 88.177分钟
每日圈数: 16.330743
详细信息
卫星平台:
高分卫星平台
平衡模式:
三轴稳定
覆盖范围:
全球
运营商:
长光卫星技术股份有限公司
运营商所在国:
中国
制造商(研发单位):
长光卫星技术股份有限公司
制造商所在国:
中国
使用方式:
暂无
卫星简介
“吉林一号”卫星星座(JiLin-1)是长光卫星技术有限公司在建的核心工程,是我国目前最大的商业遥感卫星星座,具备了较强的服务能力。该卫星仍在工作。